{"data":{"norad_id":54870,"intl_designator":"2022-177BC","name":"STARLINK-5401","alt_names":[],"object_type":"PAYLOAD","status":"ACTIVE","operator":null,"country":"US","launch_date":"2022-12-28","launch_site_code":"AFETR","launch_vehicle":null,"mission":null,"orbit_class":"UNKNOWN","rcs_meters":null,"size_class":null,"mass_kg":null,"dimensions":null,"purposes":["comms"],"wikipedia_slug":null,"has_3d_model":false,"image_url":null,"decayed_at":null,"tle_current":{"epoch":"2026-09-20T22:14:30.583104Z","epoch_age_seconds":56472,"freshness":"FRESH","line1":"1 54870U 22177BC  26263.92674286 -.00000358  00000+0 -34953-5 0  9992","line2":"2 54870  43.0038  98.6372 0001352 271.1158  88.9539 15.27574936206958","mean_motion":15.27574936,"eccentricity":0.0001352,"inclination_deg":43.0038,"raan_deg":98.6372,"arg_perigee_deg":271.1158,"mean_anomaly_deg":88.9539,"bstar":-3.4953e-6,"rev_number":20695,"period_min":94.267061213421,"perigee_km":482.13662510902,"apogee_km":483.99189392959,"semimajor_km":6861.2012595193,"source":"CELESTRAK","updated_at":"2026-09-21T09:00:33.162725Z"}}}